DEBRISSAT-2 (43680 NORAD) Tracking and Keplerian Element Data

This shows tracking and keplerian element data for the satellite.

Feedback or suggestion? Click here.




ElementValue
Catalog43680
NameDEBRISSAT-2
Epoch Orbit4726
Epoch Day109.96462068
Epoch Year2019
RAAN283.9045
Inclination51.6383
Eccentricity0.0002992
Argument of Perigee266.5935
Mean Anonmoly93.4713
Mean Motion15.60883319
Decay Rate0.0002043
L11 43680U 98067PR 19109.96462068 .00020430 00000-0 24509-3 0 9994
L22 43680 51.6383 283.9045 0002992 266.5935 93.4713 15.60883319 47268

Live tracking and technical data element details for DEBRISSAT-2 (NORAD 43680). DEBRISSAT-2 can be tracked NOW for your location showing map with azimuth and elevation plus other details from your city location.

Track the satellite on the map from your city or location and see movement details for azimuth, elevation, latitude, longitude, range, height, and movement on the map or in text.







IsCatalogInMostPopularTable: catalog: 43680, numindb: 101
Update: records affected: 1



GetName: 43680 DEBRISSAT-2

Hit Count: updated at: Sat, 20 Apr 2019 20:13:47 GMT